Regional Weather Roundup
Issued by NWS Sterling, VA

Home | Current Version | Previous Version | Text Only | Print | Product List | Glossary On
Versions: 1 2 3 4 5 6 7 8 9 10 11 12 13 14 15 16 17 18 19 20 21 22 23 24 25 26 27 28 29 30 31 32 33 34 35 36 37 38 39 40 41 42 43 44 45 46 47 48 49 50
000
ASUS41 KLWX 020110
RWRLWX

REGIONAL WEATHER ROUNDUP
NATIONAL WEATHER SERVICE BALTIMORE MD/WASHINGTON DC
900 PM EDT WED OCT 01 2014

Note: "FAIR" indicates few or no clouds below 12,000 feet
with no significant weather and/or obstructions to visibility.
 TC=TEMPERATURE CELSIUS

 * =Non NWS site. Station does not report precipitation (e.g. rain,
    snow, etc.), thunder, or fog.

DCZ001-MDZ009-015-VAZ040>042-051-053>054-020200-
WASHINGTON METRO

CITY           SKY/WX    TMP DP  RH WIND       PRES   REMARKS
WASHINGTON NAT PTCLDY    70  60  70 CALM      30.05R
DULLES         MOCLDY    62  59  90 NE3       30.05R
ANDREWS AFB    CLEAR     61  60  96 N1        30.05R
QUANTICO       CLOUDY    67  62  84 NW3       30.05R
COLLEGE PARK*  CLEAR     63  63 100 CALM      30.04S
LEESBURG*      CLEAR     63  63 100 CALM      30.07R
MANASSAS*      CLOUDY    64  63  94 CALM      30.05R
GAITHERSBURG*  CLEAR     61  57  88 CALM      30.09S

$$

MDZ006>007-011-014-020200-
BALTIMORE METRO

CITY           SKY/WX    TMP DP  RH WIND       PRES   REMARKS
BWI AIRPORT    PTCLDY    63  59  87 CALM      30.05R
MD SCIENCE CTR   N/A     69  59  70 MISG      30.05R
MARTIN STATE   PTCLDY    64  63  94 CALM      30.05S
ANNAPOLIS      CLEAR     67  63  87 CALM      30.04R
FORT MEADE*    CLEAR     57  55  94 CALM      30.07R

$$

MDZ012-015-019>023-020200-
MARYLAND EASTERN SHORE

CITY           SKY/WX    TMP DP  RH WIND       PRES   REMARKS
OCEAN CITY     PTCLDY    66  60  81 NE6       30.03S
SALISBURY      CLEAR     64  58  80 CALM      30.04R
BAY BRIDGE AP*   N/A     64  59  82 CALM      30.04R
CAMBRIDGE*     CLEAR     61  59  94 CALM      30.04R
EASTON*        PTCLDY    64  64 100 CALM      30.08R

$$

MDZ017>025-020200-
SOUTHERN MARYLAND

CITY           SKY/WX    TMP DP  RH WIND       PRES   REMARKS
PATUXENT RIVER CLEAR     63  58  83 CALM      30.04R
ST INIGOES     CLEAR     62  58  86 CALM      30.03R
LEONARDTOWN*   CLEAR     61  57  88 CALM      30.06R

$$

MDZ003>005-020200-
NORTH CENTRAL MARYLAND

CITY           SKY/WX    TMP DP  RH WIND       PRES   REMARKS
FREDERICK*     CLEAR     61  59  94 CALM      30.09R FOG
HAGERSTOWN APT CLEAR     65  59  81 CALM      30.06R
WESTMINSTER*   CLEAR     63  57  82 CALM      30.06

$$

MDZ501>502-020200-
WESTERN MARYLAND

CITY           SKY/WX    TMP DP  RH WIND       PRES   REMARKS
OAKLAND*       MOCLDY    54 N/A N/A SE5       30.10R
CUMBERLAND*    CLEAR     63  59  88 CALM      30.10R

$$

VAZ025>031-020200-
SHENANDOAH VALLEY

CITY           SKY/WX    TMP DP  RH WIND       PRES   REMARKS
WINCHESTER*    MOCLDY    61  59  94 CALM      30.06R
STAUNTON*      CLOUDY    66  60  81 N3        30.07R

$$

WVZ021-048>050-054>055-020200-
EASTERN WEST VIRGINIA PANHANDLE

CITY           SKY/WX    TMP DP  RH WIND       PRES   REMARKS
MARTINSBURG    MOCLDY    62  57  83 CALM      30.07R
PETERSBURG*    CLOUDY   N/A N/A N/A CALM      30.07R

$$

VAZ036>039-050-020200-
CENTRAL FOOTHILLS

CITY           SKY/WX    TMP DP  RH WIND       PRES   REMARKS
CHARLOTTESVILL CLOUDY    68  62  81 NE6       30.05R
ORANGE*        CLOUDY    64  61  88 CALM      30.06S

$$

VAZ055>057-020200-
NORTH AND CENTRAL PIEDMONT

CITY           SKY/WX    TMP DP  RH WIND       PRES   REMARKS
FREDERICKSBRG* MOCLDY    66  65  96 CALM      30.04R
STAFFORD*      MOCLDY    62  62 100 CALM      30.08S

$$

NCZ024-NYZ072-PAZ021-071-VAZ022-071-020200-
OTHER REGIONAL OBSERVATIONS

CITY           SKY/WX    TMP DP  RH WIND       PRES   REMARKS
NEW YORK CITY  CLOUDY    64  55  72 NE9       30.09S
PHILADELPHIA   MOCLDY    66  57  72 NE8       30.06R
PITTSBURGH     PTCLDY    58  55  90 CALM      30.04R
ROANOKE        CLEAR     68  62  81 SE7       30.06R
RICHMOND       CLOUDY    68  63  84 E3        30.03R
RALEIGH        PTCLDY    66  62  87 CALM      30.03R

$$

ANZ530>537-020200-
MARINE OBSERVATIONS

STATION/POSITION TIME  TEMP    WIND        PRES
                       AIR SEA DIR/SP/G
                 (UTC) (F)     (DEG/KT/KT) (MB)
THOMAS PT LIGHT  0100   69 72  320/  3/  4 1018.3R
BALT KEY BRIDGE  0100   70     340/  4/  4 1017.1R
COVE POINT       0100   70      50/  7/  8 1017.0R
LEWISETTA        0100   70 73   20/  5/  9 1016.7R
SOLOMONS ISLAND  0100      73                N/A
PINEY POINT      0100           60/  2/  4   N/A

$$




USA.gov is the U.S. government's official web portal to all federal, state and local government web resources and services.